Location: Fishcreek Rd Observing Site
(41.1865°N, 81.4271°W)
Time: 07:49:30
(UTC-04:00)

Iridium 75 - Visible Passes

Search period start: 24 May 2016 00:00
Search period end: 03 June 2016 00:00
Orbit: 776 x 779 km, 86.4° (Epoch: 23 May)

Date Brightness Start Highest point End Pass type
(mag) Time Alt. Az. Time Alt. Az. Time Alt. Az.
24 May 6.0 22:26:48 10° N 22:32:00 67° E 22:35:02 25° SSE visible
25 May 8.5 00:09:28 10° NW 00:12:04 14° WNW 00:14:40 10° WSW visible
25 May 6.7 21:53:33 10° NNE 21:58:22 36° E 22:01:53 17° SE visible
25 May 7.8 23:34:39 10° NNW 23:38:52 25° W 23:42:23 13° SW visible
26 May 7.5 21:20:45 10° NNE 21:24:36 20° ENE 21:28:25 10° ESE visible
26 May 6.9 23:00:35 10° NNW 23:05:33 46° W 23:09:15 17° SSW visible
27 May 6.0 22:26:52 10° N 22:32:07 85° W 22:36:08 17° S visible
28 May 6.3 21:53:26 10° N 21:58:33 52° E 22:03:03 13° SSE visible
28 May 8.4 23:35:22 10° NW 23:38:47 18° W 23:42:11 10° WSW visible
29 May 7.0 21:20:20 10° NNE 21:24:51 29° E 21:29:20 10° SE visible
29 May 7.6 23:00:57 10° NNW 23:05:32 32° W 23:10:06 10° SW visible
30 May 6.5 22:27:02 10° N 22:32:10 59° W 22:37:16 10° SSW visible
31 May 6.0 21:53:26 10° N 21:58:40 76° E 22:03:53 10° S visible
31 May 8.7 23:36:39 10° NW 23:38:38 12° WNW 23:40:38 10° W visible
01 Jun 6.6 21:20:07 10° NNE 21:25:03 41° E 21:29:58 10° SSE visible
01 Jun 8.2 23:01:29 10° NNW 23:05:27 23° W 23:09:26 10° SW visible
02 Jun 7.2 22:27:18 10° NNW 22:32:10 40° W 22:37:00 10° SSW visible
